STARLINK-33787, 63519

Orbit data source: Space-Track

STARLINK-33787, 63519 is a payload satellite owned by SpaceX/Seattle (US) in LEO that was launched on Mon, 07 Apr 2025 UTC via an FALCON 9 launch vehicle from the Air Force Western Test Range (AFWTR). Payload-class satellites include a variety of spacecraft equipped with specific instruments for various scientific and technological missions. These include communications satellites like Starlink; space stations such as the ISS; scientific satellites like the Hubble; Earth observation satellites from companies like Planet Labs, Umbra, and HawkEye 360; GPS; miniature CubeSats for education and research; and military/defense satellites.

Loading next visibility...
Identifier
63519, 2025-071AC
Orbit
LEO
Country
Flag of USUS
Related business
Manufacturer
SpaceX/Seattle
Mission
Operational Commercial Communications
Bus & Motor
STARLINK V2MO, Unknown motor
Mass
575 kg wet, ~530 kg dry
Launch date (UTC)
2025-04-07 (5 months ago)
Launch vehicle
FALCON 9
Launch site
Air Force Western Test Range (AFWTR)
Object type
Payload
Rocket body
Debris
Shape & HBR
Box + 1 Pan, 14.5 m
Radar Cross Section
41.120 m², Large (>1 m²)

Expand to show TLE details & history
Last TLE update: 1 day ago

TLE from 1 day ago
0 STARLINK-33787
1 63519U 25071AC  25260.05475465  .00033425  00000-0  11353-2 0  9992
2 63519  53.1561 228.6700 0001920  86.0855 274.0365 15.30209319 25788
Epoch: 2025-09-17T01:18Z
TLE epoch observation values (Epoch: 2025-09-17T01:18:50.801Z)
Latitude
-0.00005°
Longitude
-147.27792°
Altitude
475.994 km
Speed
7.629 km/s
True Right ascension
15h 14m 40s
True Declination
0° 00' 00"
Sunlit
Object was in daylight at epoch
Visualization orbit readout
Latitude
Unknown
Longitude
Unknown
Altitude
Unknown
Speed
Unknown
Apparent Right ascension
Unknown
Apparent Declination
Unknown
Sunlit
N/A
Visualization observer readout
Local Sidereal Time
23:43:48
Azimuth
Unknown
Elevation
Unknown
Doppler factor
Unknown
Orbital elements
Apogee altitude
476.76 km
Perigee altitude
474.128 km
Semi-major axis
6,853.581 km
Eccentricity
0.00019
Inclination
53.1561°
RAAN
228.67°
Arg. of periapsis
86.0855°
True anomaly
274.01455°
Mean anomaly
274.0365°
Eccentric anomaly
274.02553°
Mean motion
3.82531 °/min
Orbital period
94.11 mins
BSTAR
0.0011353
Loading maneuver chart data...
Computing Atmospheric mass density...
Loading historical data...
Loading historical data...
Loading historical data...
Loading historical data...
Loading historical data...
Loading historical data...
Loading historical data...

Documentation

Showing up to 5 results
|